Theta_e
290 290 290 290 290 290 291 291 291 291 290 290 291 292 292 292 292 293 293 293 293 293 294 294 294 294 294 294 294 293 293 293 292 292 291 291 291 291 291 290 290 290 289 289 289 288 288 288 288 288 288 289 289 289 290 290 290 289 289 289 289 289 289 290 291 291 287 286 286 285 285 284 284 283 283 283 283 283 283 282 281 281 281 282 282
289 290 290 290 289 289 289 289 290 291 291 290 290 290 291 291 291 291 292 292 292 292 293 293 293 293 293 293 293 293 293 293 292 292 291 291 291 290 290 290 290 290 289 289 289 288 288 288 288 288 288 288 288 289 289 289 289 288 288 288 288 288 288 288 290 290 287 285 285 284 284 283 283 283 283 282 282 283 282 281 281 281 281 281 282
289 289 289 289 289 289 289 288 289 289 290 290 290 290 290 290 290 290 291 291 291 292 292 292 292 292 293 293 293 293 293 292 292 292 291 291 290 290 290 290 290 289 289 289 288 288 288 287 287 287 287 287 287 288 288 288 288 288 288 288 288 287 288 287 288 289 288 285 284 284 283 283 283 283 283 282 282 282 281 281 280 281 281 281 282
288 288 288 288 288 288 288 288 288 288 289 289 290 290 290 290 289 290 290 290 290 291 291 291 291 291 291 292 292 292 292 292 292 292 291 291 290 290 290 290 289 289 289 289 289 288 288 288 287 287 287 287 287 287 287 287 287 287 287 287 287 287 287 287 287 288 288 285 284 283 283 282 282 282 282 282 281 280 280 280 280 281 281 282 282
288 288 288 288 287 287 287 287 287 287 287 288 289 289 290 290 290 289 289 290 290 290 290 290 290 291 291 291 291 292 292 292 292 292 291 291 291 290 290 289 289 289 289 289 289 288 288 288 288 287 287 287 287 286 287 287 287 287 287 287 287 286 286 286 286 287 287 286 284 283 282 282 281 281 281 281 280 279 279 279 280 281 281 281 281
287 287 288 288 288 287 287 286 286 286 286 287 287 288 289 289 290 290 289 289 289 289 290 290 290 290 290 290 291 291 291 291 291 291 291 291 291 290 290 289 289 289 288 288 288 288 288 288 288 287 287 287 286 286 286 286 287 286 286 286 286 286 286 285 285 285 286 286 284 282 282 281 281 280 280 279 280 280 280 280 280 280 280 280 280
287 288 288 288 288 288 287 286 285 285 285 285 286 287 287 288 289 290 290 290 289 289 289 289 289 289 289 289 289 290 290 290 290 290 290 290 290 290 289 289 289 288 288 288 288 288 288 288 287 287 287 287 286 286 286 286 286 286 286 286 285 285 285 285 284 284 284 285 284 282 281 280 280 280 280 279 280 281 281 281 281 281 280 280 280
287 287 288 288 288 288 287 286 285 285 284 285 285 286 286 287 287 288 289 290 290 289 288 288 288 289 289 289 289 289 289 289 289 289 290 289 289 289 289 288 288 288 288 288 287 288 287 287 287 287 286 287 286 286 286 286 286 285 285 285 285 285 284 284 284 284 284 284 283 282 281 281 280 281 280 279 279 281 281 282 283 283 281 281 280
287 287 287 287 287 287 287 286 285 284 284 284 284 285 285 285 286 286 287 288 289 289 289 288 288 288 288 288 288 288 288 289 289 289 289 289 289 289 288 288 288 288 287 287 287 287 287 286 286 286 286 286 286 286 286 286 286 285 285 285 285 284 284 284 284 283 283 283 283 282 281 281 281 281 280 280 281 282 281 280 282 282 281 281 280
286 286 286 287 287 286 286 286 285 284 284 284 284 284 285 285 285 285 285 286 287 288 289 289 288 288 288 288 288 288 288 288 288 288 289 288 288 288 288 288 288 287 287 287 287 286 286 286 286 286 286 285 285 285 285 285 285 286 286 286 285 285 284 283 283 283 283 283 283 282 282 282 281 281 281 281 281 282 281 281 281 281 280 281 281
286 285 286 286 286 286 286 286 285 284 284 283 283 284 285 285 284 284 284 284 285 286 287 288 288 288 288 288 288 288 288 288 288 288 288 288 288 288 288 288 288 287 287 287 286 286 286 285 285 285 285 285 285 285 285 285 284 285 285 285 285 286 285 284 283 282 282 283 282 282 282 282 282 281 281 282 281 281 281 281 281 281 281 281 283
285 284 284 285 285 285 285 285 285 285 284 283 283 284 285 285 284 284 284 284 284 284 285 286 287 287 288 288 288 287 287 287 287 287 287 288 288 288 288 288 287 287 287 287 286 286 286 285 285 285 285 285 284 284 284 284 284 284 284 284 284 285 285 285 284 283 282 282 282 282 282 282 282 282 281 282 281 281 281 281 281 281 281 281 282
284 284 284 284 285 284 284 284 284 284 283 282 283 285 286 285 285 284 283 283 283 283 284 284 285 286 287 287 287 287 287 287 287 287 287 287 287 287 288 288 287 287 287 287 286 286 286 286 285 285 284 284 284 284 283 283 283 283 283 283 283 283 284 284 284 284 283 282 282 282 282 282 282 281 281 281 281 281 281 280 280 280 280 281 281
283 283 283 284 284 284 283 283 282 282 281 281 282 285 286 285 285 284 284 283 283 283 283 283 284 284 285 286 286 287 287 287 287 286 286 287 287 287 287 287 287 287 287 287 287 286 286 286 285 285 284 284 284 283 283 283 283 283 283 283 282 282 282 282 283 283 282 282 282 282 282 282 282 281 281 281 281 281 280 280 279 280 280 280 280
282 282 283 283 283 283 282 282 281 280 280 280 282 285 286 286 285 284 284 284 283 283 282 282 283 283 283 284 285 285 286 287 287 286 286 286 287 287 287 287 287 287 287 287 287 286 286 286 285 285 284 284 283 283 283 282 282 282 282 282 282 281 281 281 282 282 281 282 282 282 282 282 281 281 281 280 280 280 280 279 279 279 279 279 279
282 282 282 282 282 282 281 281 280 279 278 278 280 283 285 285 284 283 283 283 284 283 282 282 282 282 283 283 284 284 285 286 286 287 286 286 287 287 287 288 288 287 287 287 286 286 286 285 285 285 284 284 283 283 282 282 282 282 282 282 281 281 281 281 281 281 281 281 281 281 281 281 281 280 280 280 280 279 279 278 278 278 278 278 278
281 281 281 281 281 281 280 279 278 278 277 277 279 282 284 283 281 281 282 282 283 283 282 281 281 281 282 282 283 283 284 284 285 286 286 286 286 286 287 287 288 287 287 287 286 286 285 285 285 284 284 283 283 283 282 282 282 282 282 282 281 280 280 280 280 280 280 280 280 280 280 280 280 279 279 279 279 278 278 278 277 278 277 277 277
280 280 280 280 280 279 279 278 277 277 276 276 278 281 281 280 279 279 280 280 281 281 282 282 281 281 281 282 282 283 283 283 284 285 285 285 285 286 286 287 287 288 287 287 287 286 285 285 284 284 283 283 283 282 282 282 282 282 282 281 281 280 279 280 280 280 279 279 278 279 279 279 279 279 279 279 278 278 278 277 277 277 277 277 277
280 279 279 279 279 278 278 277 277 276 275 275 277 279 278 277 277 277 277 278 279 279 281 282 282 281 281 281 282 282 282 283 283 284 284 285 285 285 286 286 287 287 287 287 287 286 285 284 284 283 283 282 282 282 282 282 282 281 281 281 280 280 279 279 279 279 279 279 278 278 278 279 279 279 279 279 278 278 278 277 277 276 276 276 276
279 279 278 278 278 277 277 276 276 275 275 275 276 276 276 275 275 275 275 276 277 278 279 280 281 281 280 281 281 281 282 282 283 283 283 284 284 285 285 286 287 287 287 287 286 285 284 284 283 283 282 282 282 282 282 282 282 281 281 280 280 280 279 279 279 279 279 279 278 279 279 279 279 279 279 279 278 278 277 277 277 277 276 275 274
278 277 277 277 276 276 275 275 274 274 274 274 274 274 273 273 273 273 273 274 275 276 277 278 279 280 280 280 281 281 281 282 282 283 283 283 284 284 285 286 286 287 287 287 286 285 284 283 282 282 282 282 281 281 282 283 282 281 281 280 280 280 280 279 279 279 280 279 279 279 279 279 279 278 278 278 278 277 276 277 277 276 275 274 273
276 276 276 275 275 274 274 273 273 273 273 273 272 272 271 271 271 271 272 273 274 274 275 277 278 280 281 281 281 281 281 281 282 282 282 282 283 284 285 285 285 286 287 287 286 285 284 283 282 282 282 282 281 281 282 283 283 282 281 280 280 280 279 279 279 280 280 280 279 279 278 278 278 277 277 277 277 276 276 276 276 275 274 272 272
275 274 274 274 273 273 273 272 272 272 271 271 271 270 270 270 270 271 271 272 273 274 275 277 278 280 280 281 281 281 281 281 281 281 282 282 282 283 284 285 285 286 286 286 286 285 284 283 282 282 281 281 282 282 282 283 283 282 281 280 280 280 279 279 279 279 280 279 278 278 277 277 276 276 276 276 276 276 276 276 275 273 272 271 271
273 273 273 272 272 272 272 271 271 270 270 270 269 269 269 269 270 270 271 272 273 274 275 277 278 280 281 281 282 282 281 281 281 281 281 282 282 282 283 284 285 285 286 286 286 285 284 283 282 281 281 281 282 282 282 282 283 283 282 281 280 280 280 279 279 279 279 278 277 277 276 276 276 275 275 275 275 275 275 274 272 271 271 270 270
271 271 271 271 271 271 270 270 270 269 269 269 268 268 269 269 269 269 270 271 272 274 275 276 278 279 280 281 281 282 282 281 281 281 281 281 281 282 282 283 284 285 285 286 286 285 284 283 282 281 280 281 282 282 282 282 283 283 283 281 281 280 279 278 278 278 278 277 277 276 275 275 275 275 275 275 275 274 273 271 270 270 270 269 270
269 269 269 269 269 269 269 269 268 268 268 268 268 268 268 268 268 269 270 271 272 273 274 276 277 279 280 281 281 281 282 282 281 281 281 281 281 281 281 282 283 284 285 285 285 285 284 283 281 280 280 280 281 281 282 282 282 283 283 282 281 280 279 278 278 277 277 276 276 275 275 274 274 274 274 275 274 272 271 270 269 269 269 269 269
267 267 267 267 267 267 267 267 267 267 267 267 267 267 267 268 268 269 269 270 271 272 273 275 276 277 279 280 281 281 281 282 282 281 281 281 280 280 280 281 282 283 284 284 285 285 284 283 282 281 280 280 281 281 281 281 282 283 283 282 281 280 279 278 277 277 276 276 276 275 274 274 274 274 274 273 272 270 270 269 269 268 268 268 268
265 265 265 265 265 266 266 266 266 266 266 266 266 266 266 267 267 268 268 269 270 271 272 273 274 276 277 278 280 280 281 281 282 281 281 280 280 280 280 280 281 282 282 283 284 284 283 282 281 281 280 280 281 281 281 281 282 282 282 281 280 279 278 277 277 276 276 276 275 274 273 273 272 272 272 271 270 269 268 268 268 268 267 267 267
263 263 263 264 264 264 264 265 265 265 265 265 265 265 265 266 266 266 267 268 268 269 270 271 272 273 275 276 278 279 280 280 281 281 281 281 280 280 280 280 280 281 281 282 283 283 282 281 281 280 280 280 281 281 281 282 282 282 282 281 279 278 277 276 276 275 275 274 274 273 272 272 271 271 270 269 268 267 268 268 267 267 267 267 267
261 262 262 262 263 263 263 263 263 263 264 264 264 264 264 265 266 266 266 267 268 269 270 271 271 272 273 275 276 277 279 280 280 281 281 281 281 281 280 280 280 280 281 282 283 282 281 280 280 280 280 280 280 281 281 281 282 281 280 279 277 277 276 276 275 275 274 273 273 272 272 271 269 269 268 267 267 267 267 267 267 267 267 267 267
261 261 261 261 262 262 262 262 262 262 263 263 263 263 263 264 265 266 267 267 268 269 270 271 272 273 274 275 276 277 278 279 280 281 281 282 282 281 281 281 281 281 281 282 282 281 280 280 280 280 280 280 280 281 281 281 280 280 279 277 276 276 276 275 274 274 273 272 271 271 271 269 268 268 267 267 267 266 266 267 267 266 267 267 267
260 261 261 261 261 261 261 262 262 262 262 262 263 263 263 264 264 265 266 267 269 270 271 272 273 274 275 276 276 277 278 279 280 280 281 282 282 282 282 282 282 282 282 282 282 281 280 280 280 279 280 280 280 280 281 280 279 278 277 276 275 275 275 275 274 272 271 271 271 270 269 269 268 267 267 267 267 266 266 266 266 266 266 267 267
260 260 260 260 261 261 261 261 262 262 262 262 263 263 263 264 264 265 265 266 267 268 269 270 271 273 274 275 276 277 278 279 280 281 281 282 282 283 283 282 282 282 282 282 282 281 280 280 280 279 280 280 280 280 280 279 277 276 275 275 274 275 274 274 272 271 271 271 271 269 269 268 268 267 267 267 267 266 266 266 266 266 266 266 266
260 260 260 260 260 261 261 261 261 262 262 262 263 263 263 264 264 264 265 265 265 266 266 267 269 270 271 272 273 275 276 278 279 280 281 282 283 283 283 283 283 283 283 283 282 281 280 280 280 279 279 280 280 280 279 277 276 275 274 274 274 273 272 271 271 270 270 270 270 269 268 268 268 268 267 266 266 266 266 266 266 266 266 266 266
259 260 260 260 260 261 261 261 261 262 262 262 262 263 263 263 263 264 264 264 265 265 266 266 267 268 269 270 271 272 274 276 278 278 279 281 283 283 283 283 283 283 283 283 283 281 280 279 279 279 279 279 279 278 277 276 275 274 273 272 272 270 270 270 270 269 269 270 269 268 268 268 268 268 267 267 266 266 266 266 266 266 266 266 266
259 259 260 260 260 261 261 261 261 262 262 262 262 262 263 263 263 263 264 264 265 265 266 266 267 268 269 270 271 272 273 274 276 278 280 281 282 283 283 283 283 283 282 283 283 282 281 279 279 279 279 279 278 277 276 275 274 273 272 271 270 269 269 269 269 268 269 269 268 268 268 267 267 268 267 267 267 266 266 266 266 265 266 266 266
259 259 259 260 260 260 260 261 261 261 261 262 262 262 263 263 263 264 264 264 265 266 266 267 268 268 269 270 271 273 274 275 276 279 280 281 282 283 283 283 283 282 282 282 283 282 281 279 279 279 278 278 277 276 275 274 274 273 271 270 270 269 269 269 268 269 269 268 267 267 267 267 267 267 267 267 266 266 266 266 266 265 265 266 266
259 259 259 260 260 260 260 260 261 261 261 261 262 262 263 263 263 264 264 265 266 266 267 268 269 269 270 271 272 274 276 276 277 279 280 280 282 283 283 283 282 282 282 282 282 282 281 280 279 278 278 277 277 275 274 273 273 271 270 269 269 269 268 268 267 268 269 268 267 267 267 267 267 267 267 267 266 266 266 266 265 265 266 266 266
259 259 260 260 260 260 261 261 261 261 261 261 262 262 262 263 263 264 264 265 266 266 267 268 268 269 270 271 272 274 276 277 278 279 279 280 281 282 283 282 282 282 282 282 282 281 280 279 279 278 277 276 276 275 274 273 271 270 269 269 268 267 267 267 267 267 268 268 267 267 267 267 266 267 267 267 267 267 266 266 265 265 265 266 266
259 260 260 260 260 261 261 261 261 261 261 262 262 262 263 263 263 264 264 265 265 266 266 267 267 268 269 270 271 274 276 277 278 278 279 279 281 282 282 282 282 282 282 281 281 280 279 279 278 276 275 275 274 273 272 271 269 268 268 268 267 267 267 268 268 268 268 268 268 267 267 266 267 267 267 267 267 267 267 266 266 265 265 266 266
260 260 260 260 260 261 261 261 261 261 261 262 262 262 262 263 263 263 264 264 264 265 266 266 267 267 268 269 271 273 275 277 278 278 278 279 280 281 282 282 282 281 281 280 279 278 278 277 275 274 273 273 273 271 270 269 268 268 267 267 267 267 267 268 268 268 268 268 267 267 267 267 267 267 267 267 267 267 266 266 265 265 265 266 266
260 260 260 261 261 261 261 261 261 261 261 262 262 262 262 262 263 263 264 264 265 265 266 266 267 268 269 271 272 274 275 277 277 278 279 279 280 280 280 280 280 280 278 277 277 276 275 273 272 273 273 273 271 270 269 268 268 267 267 267 267 267 267 267 268 268 268 268 267 267 267 267 267 267 267 267 266 266 266 265 265 265 265 265 265
260 261 261 261 262 262 262 262 262 262 262 262 262 262 263 263 263 263 264 264 265 265 266 267 268 269 270 272 274 275 275 276 277 278 278 278 277 277 277 277 277 277 276 275 275 274 273 272 272 273 273 272 271 271 271 270 269 268 267 267 267 268 268 267 267 268 268 267 267 267 267 266 266 266 266 266 266 266 265 265 265 265 265 265 265
261 261 262 262 262 263 263 263 263 263 263 263 263 263 263 263 264 264 264 265 265 266 267 268 269 270 272 273 274 275 275 275 275 275 275 275 275 274 274 274 275 275 275 274 273 272 273 272 272 271 270 269 270 271 272 271 270 270 269 268 268 268 268 268 268 268 268 267 267 267 266 266 265 265 265 266 266 265 265 265 265 264 265 265 265
261 261 262 262 263 263 263 264 264 265 265 265 265 264 264 264 265 265 265 266 266 267 268 269 270 272 273 273 273 273 272 272 272 271 271 272 272 272 271 272 272 273 273 272 271 271 272 272 271 269 269 269 269 270 270 270 270 270 271 270 269 269 269 269 269 268 268 267 267 267 266 266 266 265 265 266 266 266 266 265 265 264 264 265 265
261 261 262 262 263 263 263 264 264 265 265 266 266 266 266 266 266 266 267 267 268 268 269 270 271 271 271 270 270 269 269 269 269 268 268 268 269 269 269 270 270 270 270 270 270 270 270 270 270 270 270 269 269 270 269 268 268 269 270 270 270 270 269 269 269 268 268 267 267 267 266 266 266 266 266 266 266 266 266 265 265 264 264 265 265
260 261 261 262 262 263 263 263 264 264 265 266 266 267 267 267 267 267 267 267 268 268 268 268 268 268 267 267 266 266 266 266 266 266 266 266 266 266 267 268 268 268 268 268 268 268 268 269 270 271 270 269 269 269 268 268 269 269 269 269 269 269 268 268 267 267 267 267 267 267 266 266 266 266 266 266 266 266 266 265 265 265 265 265 265
260 260 261 261 262 262 262 262 263 263 264 264 265 265 265 266 266 266 266 266 266 266 266 266 265 265 265 264 264 264 264 264 264 264 264 264 264 265 265 266 266 266 266 266 266 266 267 269 270 270 269 269 268 268 268 268 268 268 267 267 267 267 267 267 266 266 266 266 266 266 266 266 266 266 266 266 266 265 265 265 265 265 265 265 265
259 259 260 260 261 261 261 262 262 262 263 263 263 264 264 264 264 264 264 264 264 264 264 264 264 263 263 263 262 262 262 262 262 262 262 262 263 263 264 264 265 265 265 265 264 265 266 268 269 269 268 268 268 268 267 267 267 267 266 266 266 266 266 266 266 266 265 265 265 265 265 265 265 265 266 266 265 265 265 265 264 264 265 265 265
258 258 259 259 260 260 260 261 261 261 262 262 262 262 263 263 263 263 263 263 263 263 263 263 262 262 262 261 261 261 260 260 260 260 260 261 261 262 262 263 264 265 265 265 265 266 267 267 268 267 267 267 267 267 267 266 266 266 266 266 266 265 265 265 265 265 265 265 265 265 265 265 265 265 265 265 265 264 264 264 264 265 265 265 265
257 257 258 258 258 259 259 260 260 260 260 261 261 261 261 262 262 262 262 262 262 262 262 261 261 261 260 260 260 259 259 259 259 259 259 260 260 262 263 264 265 265 266 266 266 267 267 267 267 267 266 266 266 266 266 265 265 265 265 265 265 265 265 265 265 264 264 264 264 264 264 265 265 265 265 265 264 264 264 264 265 265 265 265 266
Wind_Speed
26 26 26 28 29 28 28 28 25 22 19 15 13 14 16 19 22 24 25 26 26 27 28 29 31 32 33 33 35 36 37 39 41 42 43 44 45 46 46 46 47 48 46 45 47 47 46 46 47 48 47 44 43 43 43 42 40 38 37 35 34 34 30 19 9 6 10 15 18 22 26 26 27 29 28 26 26 25 23 22 21 18 16 15 14
28 25 22 23 27 27 27 28 28 27 24 21 17 15 15 16 19 21 22 24 25 27 28 30 31 32 33 34 34 36 37 38 39 41 43 44 45 45 45 45 46 47 46 46 47 47 47 46 46 46 46 44 43 43 43 43 41 39 38 37 35 36 34 26 15 8 10 15 18 21 25 27 25 26 29 27 25 25 25 24 22 19 18 17 16
26 25 23 24 26 27 29 30 29 29 28 26 24 22 19 17 17 18 19 21 23 25 27 29 31 32 33 34 35 36 37 37 39 40 42 44 44 45 46 47 47 48 48 49 49 47 47 48 47 47 45 44 43 43 42 43 42 41 40 40 38 37 37 33 23 12 12 16 19 22 25 28 26 25 28 28 26 25 25 23 21 20 19 18 17
21 22 23 25 27 28 30 31 31 31 29 28 28 26 23 20 17 16 17 18 19 22 24 27 29 30 31 33 34 36 37 37 39 40 42 44 45 45 46 47 49 50 51 51 50 50 50 50 51 49 47 45 45 45 44 43 43 43 42 42 40 38 38 38 30 18 14 16 19 22 24 27 26 24 27 28 27 26 23 21 21 21 20 19 17
19 19 20 22 25 27 27 28 29 30 30 30 29 28 27 24 20 17 15 15 17 18 20 23 26 28 30 32 34 36 37 39 40 41 43 44 45 46 45 46 48 49 51 52 51 50 51 53 54 51 48 48 49 48 47 46 45 45 44 43 42 39 37 38 35 25 17 16 18 20 19 21 22 21 25 27 23 22 22 21 21 21 20 19 17
21 20 19 18 19 23 25 27 28 29 30 30 29 28 28 27 25 22 17 15 15 16 17 19 22 26 29 31 33 35 37 39 41 42 43 44 44 45 45 44 44 46 49 52 51 49 50 54 54 52 50 52 54 52 50 49 48 47 46 45 43 40 36 35 35 30 20 16 19 20 18 18 18 18 23 26 20 17 18 18 19 20 19 17 15
18 17 16 15 16 19 23 26 28 29 30 30 30 29 30 29 28 26 24 21 18 17 16 17 20 24 27 29 31 33 35 38 39 40 42 44 44 45 45 44 43 44 46 50 51 51 52 54 53 52 53 56 58 56 53 51 50 49 49 47 43 40 37 34 34 31 22 15 17 19 18 18 17 15 19 24 20 15 15 14 14 17 17 15 14
16 16 15 14 15 16 18 23 26 28 29 29 30 30 30 30 29 28 27 26 23 21 20 18 20 22 24 26 28 30 32 34 36 37 39 41 43 44 44 43 43 44 45 46 50 51 52 53 54 54 56 57 57 57 55 53 52 50 49 46 44 42 39 35 32 28 21 16 15 17 16 17 17 14 15 20 19 17 18 17 14 13 15 14 14
13 13 14 14 15 15 16 19 23 26 27 28 29 29 29 30 30 29 29 28 26 25 23 21 20 20 22 23 26 28 30 32 33 34 34 36 39 42 43 42 41 42 43 44 48 50 50 52 54 55 56 55 54 54 53 53 54 53 52 49 46 43 40 36 33 27 20 16 15 16 16 16 18 17 17 20 20 18 19 20 15 12 12 12 12
13 12 11 11 12 14 15 17 21 25 26 27 28 28 28 29 30 30 30 29 28 27 26 24 23 21 20 20 22 25 29 31 32 32 33 34 35 37 39 40 40 41 42 43 45 48 49 50 53 53 52 51 52 52 51 51 52 54 55 54 52 49 44 39 36 32 25 19 17 18 16 16 20 21 20 21 20 17 17 18 14 10 9 8 9
16 16 15 14 13 12 12 13 16 20 23 25 27 27 27 28 28 29 30 30 30 29 28 26 25 24 22 21 21 21 25 28 29 31 33 35 35 35 36 37 38 40 42 43 44 46 47 48 50 49 48 49 51 51 51 50 51 52 52 53 55 55 52 46 42 38 32 26 23 22 18 17 20 22 19 18 19 18 17 16 13 10 8 6 5
18 19 19 18 17 17 16 16 16 17 19 22 24 24 25 26 27 29 30 31 31 30 29 27 26 26 24 24 24 23 25 27 27 29 32 33 35 36 36 36 36 38 41 41 43 45 45 45 46 46 48 48 48 48 50 51 51 51 51 51 52 54 56 54 50 46 42 36 32 29 24 20 20 22 22 22 21 19 17 15 13 11 9 8 5
18 19 20 18 17 17 18 20 21 20 21 23 24 22 22 23 24 27 30 31 31 31 31 30 28 27 25 25 25 26 27 27 27 29 30 32 34 35 36 37 37 38 40 42 43 43 43 42 43 44 45 45 44 45 48 50 50 49 50 50 50 50 52 53 52 50 48 46 43 39 34 30 27 25 27 27 25 21 18 15 14 12 10 9 7
17 18 19 16 15 16 16 17 19 21 23 25 24 21 21 22 23 25 26 28 30 31 32 32 31 29 27 26 26 27 28 27 27 28 29 31 32 34 35 37 38 39 41 43 43 42 40 40 42 44 44 42 43 44 44 46 47 46 46 47 48 48 49 50 50 47 45 45 46 43 39 35 31 28 27 27 26 25 21 17 14 13 11 9 7
17 17 17 17 16 16 16 16 18 21 25 26 23 20 20 20 22 23 22 24 27 29 31 32 33 32 31 30 29 30 31 30 27 27 28 29 30 31 33 36 37 39 41 43 44 43 41 39 41 44 43 42 44 45 45 45 44 43 42 44 45 47 48 50 51 49 46 44 44 42 39 35 31 27 26 26 26 24 21 18 14 12 12 9 7
16 15 16 16 16 15 15 18 21 25 27 27 25 21 19 19 21 21 21 22 23 25 30 33 33 33 33 32 32 34 35 34 30 28 27 27 28 29 32 34 35 37 39 41 43 43 44 43 43 43 43 42 43 45 46 46 42 40 40 41 40 42 46 49 50 50 49 46 42 40 37 34 31 27 26 26 25 23 20 17 15 15 13 10 8
17 16 16 16 16 16 17 21 26 28 29 28 26 21 19 21 22 21 21 22 22 24 28 32 34 34 34 33 33 34 37 37 33 30 28 26 26 27 30 31 33 37 40 41 42 42 43 45 45 44 44 43 44 44 44 44 42 40 39 37 35 36 41 43 42 42 45 44 40 38 34 31 29 27 25 25 25 25 23 20 17 17 13 9 9
19 20 20 19 20 21 22 25 27 29 30 30 25 22 23 25 25 22 20 22 24 25 25 28 32 34 34 33 33 33 36 38 36 32 31 28 26 27 28 28 30 34 37 39 40 41 42 42 42 42 43 43 43 43 43 43 42 40 39 35 33 35 37 36 34 33 35 36 34 32 30 27 26 25 24 23 23 25 25 22 21 19 15 11 10
21 21 21 21 22 26 27 28 28 30 33 31 25 24 28 29 27 25 23 22 25 26 24 24 28 32 34 33 33 34 36 39 38 35 32 30 27 27 27 27 29 32 33 35 37 39 40 40 39 41 42 42 42 42 42 42 41 41 39 36 36 38 35 32 34 33 31 30 31 31 29 27 25 23 23 22 22 23 23 23 24 23 18 13 11
22 21 21 21 23 27 29 29 31 32 33 31 27 28 31 31 28 28 27 26 25 25 25 24 27 32 35 36 36 36 36 38 39 37 34 31 29 28 27 26 28 30 31 33 35 35 36 37 38 40 41 40 41 41 40 41 42 43 42 41 42 42 34 31 35 37 34 34 35 33 29 26 26 25 24 24 24 23 24 25 26 25 20 14 12
23 22 23 24 27 30 32 32 33 33 31 29 29 33 36 33 31 31 30 28 26 27 29 29 28 31 34 36 36 35 35 37 38 38 35 33 31 29 29 30 29 29 30 32 32 32 34 34 35 38 38 38 39 39 39 40 41 44 45 47 49 47 39 36 38 38 36 35 33 30 27 28 30 30 29 29 27 25 25 26 25 24 22 17 14
26 26 28 29 32 33 33 33 33 33 32 30 30 35 38 35 32 31 29 27 28 32 34 32 28 28 31 33 34 35 36 37 37 38 37 35 33 30 31 34 33 29 30 32 30 30 32 34 35 37 37 36 36 38 39 39 39 42 46 49 49 46 42 40 38 36 35 32 27 26 29 33 34 33 32 31 30 27 25 24 23 20 20 20 18
29 31 33 33 34 35 34 34 34 33 33 32 32 35 37 34 31 29 27 26 27 29 31 30 28 27 28 29 31 35 38 37 37 37 37 36 35 33 33 35 35 31 31 32 30 29 33 35 36 37 37 36 35 36 37 39 39 41 44 45 42 40 40 40 38 36 35 30 24 24 30 35 36 34 33 32 30 28 25 23 21 19 18 19 19
30 33 35 35 36 37 35 36 35 34 34 32 30 31 33 30 28 27 25 25 25 25 26 26 24 23 23 24 26 31 35 37 37 37 36 37 37 34 33 34 34 33 34 34 31 30 34 36 36 36 35 34 34 35 36 39 40 41 41 39 37 36 38 40 40 38 35 28 23 23 28 34 36 35 34 32 29 26 23 20 18 18 17 17 16
31 34 36 36 38 38 37 37 37 36 35 32 28 29 29 28 27 26 24 24 24 24 24 24 23 22 21 21 23 26 28 32 35 36 35 36 37 35 32 33 34 34 35 36 35 34 34 33 34 35 34 33 33 33 35 38 40 40 38 37 37 36 39 42 43 40 36 30 26 24 27 33 36 34 32 30 26 22 20 18 17 17 17 16 16
33 34 35 36 38 38 37 37 36 34 32 30 28 29 29 28 28 26 23 23 24 24 24 24 23 23 21 21 23 25 24 26 30 35 35 35 36 36 32 31 33 35 37 37 37 35 34 32 32 32 32 32 33 33 34 36 38 38 38 38 39 38 40 45 45 41 37 32 28 28 30 33 34 32 29 27 24 22 21 21 20 19 18 17 16
33 33 34 35 36 35 34 34 34 32 30 28 29 29 28 27 27 26 24 23 24 24 24 24 23 22 22 22 23 24 23 22 24 31 34 33 34 34 32 32 33 32 33 35 34 32 33 33 32 32 32 32 33 35 35 34 35 37 38 39 39 37 39 44 43 40 38 35 31 31 32 32 32 29 27 26 24 22 22 23 22 19 17 15 13
33 34 34 34 35 34 32 32 33 32 30 29 29 29 28 26 26 27 27 25 24 24 24 24 24 24 24 24 23 22 22 22 23 28 31 32 32 30 30 32 30 26 27 31 30 28 30 30 29 28 28 29 30 31 32 32 33 33 35 36 35 33 36 39 38 37 37 35 33 32 31 31 30 29 27 26 24 21 20 21 20 16 14 13 11
33 34 34 33 33 31 30 30 29 29 29 29 29 29 29 28 28 31 32 31 30 30 29 29 30 29 28 28 26 23 22 25 27 27 27 30 31 31 31 32 31 28 29 30 27 24 25 24 22 22 24 25 26 26 27 28 28 29 32 33 32 33 36 37 36 35 32 30 32 33 33 31 30 28 27 25 22 19 18 18 17 15 14 12 10
33 32 31 30 29 28 27 27 27 27 28 28 28 30 31 30 31 34 36 36 35 35 36 37 38 36 33 32 32 30 29 31 31 27 25 26 29 31 33 34 33 33 32 30 26 24 22 20 19 21 23 24 24 25 25 26 24 25 28 30 31 36 39 39 38 36 32 30 33 36 36 33 30 29 28 23 19 17 17 16 15 14 14 12 9
32 31 29 29 29 29 28 28 28 28 28 28 28 29 30 30 31 33 36 38 39 40 41 44 45 44 42 40 39 38 38 40 38 35 33 31 30 30 31 31 31 31 30 28 26 23 21 18 17 20 23 23 23 24 25 24 23 23 25 25 29 35 37 36 36 34 30 30 33 36 36 34 31 31 29 24 21 20 18 16 14 13 12 11 9
32 32 31 31 31 31 30 30 29 28 28 28 27 27 28 28 27 28 30 33 35 36 37 39 41 43 43 43 43 41 41 42 41 40 38 35 33 32 31 30 29 29 30 29 24 21 21 20 18 18 20 21 22 24 25 24 23 24 24 23 26 31 33 33 33 31 30 32 35 35 34 33 31 30 28 26 25 22 18 16 15 13 12 11 9
33 33 32 32 32 30 30 29 29 28 28 27 26 26 26 25 24 25 27 28 30 33 37 39 41 41 40 39 39 40 40 41 41 39 38 37 36 34 32 30 29 29 30 29 23 19 22 23 19 18 20 22 23 24 25 24 25 26 25 25 26 28 30 31 31 29 31 35 37 34 32 31 30 29 26 25 24 22 18 16 14 12 12 10 9
32 32 32 32 32 31 30 29 29 28 28 28 27 27 27 27 26 27 27 24 24 28 32 34 36 39 40 41 41 40 41 41 41 40 38 36 36 35 33 31 29 29 30 30 23 19 22 24 21 19 21 23 25 24 24 25 27 27 25 25 26 27 28 30 30 29 32 36 35 33 31 30 30 29 27 25 23 21 18 16 14 12 11 10 9
30 30 30 31 31 30 29 28 29 28 28 28 28 27 28 28 29 28 27 23 21 22 24 26 27 30 33 37 38 39 40 40 39 40 39 38 37 36 32 27 24 24 28 29 24 19 21 23 21 20 22 24 24 25 24 26 28 28 28 27 27 27 30 31 29 30 34 36 34 32 31 30 30 29 28 26 23 21 19 16 14 13 11 10 9
28 28 28 29 28 28 28 28 28 28 28 28 28 28 28 28 28 28 28 27 25 24 24 25 26 27 28 30 33 37 39 39 37 36 35 35 36 34 27 21 18 19 23 25 24 21 21 22 23 25 26 25 25 26 26 27 28 30 31 31 31 32 33 31 28 31 35 35 32 31 31 30 29 29 27 25 23 21 19 17 14 12 10 9 8
28 27 27 27 27 27 28 28 28 29 29 29 28 28 28 28 28 28 27 27 27 26 25 25 25 25 25 27 28 29 31 33 34 33 31 31 34 32 24 19 17 19 20 22 23 21 19 21 27 29 27 25 26 26 26 27 28 28 28 30 33 36 36 33 31 34 36 34 31 30 30 29 28 27 25 23 20 19 18 16 13 11 9 8 7
26 26 26 27 28 28 28 28 28 28 28 27 27 26 26 26 26 26 26 26 26 25 24 23 23 22 22 24 26 25 23 23 25 26 24 24 27 26 22 19 17 18 19 20 21 20 19 23 28 28 26 26 27 27 26 27 27 25 26 28 29 30 32 32 31 33 35 33 30 30 29 27 27 25 24 22 21 19 17 15 12 10 8 8 8
23 24 26 27 28 27 26 26 27 26 25 24 24 24 24 24 24 24 24 23 23 23 22 21 21 22 23 25 25 23 20 17 17 16 16 17 19 19 19 17 15 17 19 18 17 18 20 23 24 24 25 27 28 27 28 28 26 25 28 30 29 28 31 33 32 32 33 32 30 29 28 27 26 24 23 22 21 19 17 15 12 10 9 8 8
21 22 23 25 25 25 24 24 25 25 24 24 23 23 23 23 23 23 23 22 22 22 22 22 22 24 26 27 26 23 18 15 15 14 14 15 16 14 15 14 14 16 17 16 15 17 20 21 21 21 24 28 29 28 29 28 27 27 31 34 34 33 34 36 36 35 34 33 31 30 28 26 26 24 23 21 20 18 16 14 12 10 9 7 8
21 21 21 23 24 23 22 23 24 24 24 24 24 23 23 23 23 22 22 22 22 22 22 21 22 24 25 27 29 28 24 19 16 15 14 15 16 14 12 12 13 14 14 14 16 19 19 20 21 21 24 28 28 28 27 27 28 30 32 33 35 36 36 37 37 36 34 32 30 29 28 27 26 25 23 21 19 16 15 13 10 9 8 7 7
25 23 21 21 20 18 18 20 21 22 22 23 23 23 23 23 22 22 21 21 21 21 21 21 22 23 24 25 26 27 24 20 17 16 15 14 14 12 10 10 12 13 13 15 19 21 21 21 23 26 29 31 29 28 29 30 31 32 31 31 34 37 37 35 35 34 33 31 30 29 28 28 27 25 22 20 18 16 14 12 9 7 6 7 7
26 23 21 20 18 16 16 17 18 18 19 20 21 22 22 21 21 21 21 21 21 21 20 20 21 22 22 22 22 21 20 18 16 13 10 8 6 5 7 10 13 15 16 18 22 25 26 27 28 30 32 33 32 34 35 35 34 33 30 30 35 38 38 36 34 33 32 31 30 30 29 28 25 23 21 20 18 15 13 11 9 7 6 7 7
24 22 22 21 20 19 18 18 17 17 18 19 20 20 20 20 20 19 19 20 20 20 20 20 20 21 20 19 17 14 12 11 8 4 5 6 6 7 10 13 15 17 18 19 22 25 27 29 29 28 27 28 30 32 34 34 35 35 35 36 39 40 39 37 35 34 33 32 31 30 29 27 24 22 21 20 17 15 12 10 9 8 6 6 6
22 21 21 21 20 20 20 20 19 19 18 17 17 17 17 18 18 18 18 18 18 19 19 20 19 18 15 12 9 6 4 2 1 3 6 9 11 12 14 15 17 18 19 20 22 25 28 30 30 28 27 28 28 27 28 30 33 35 37 39 40 39 36 35 34 32 31 31 31 29 28 27 24 22 21 19 17 15 13 11 9 8 7 6 7
21 21 19 19 19 19 19 19 20 20 19 17 15 13 13 14 15 16 17 17 17 17 17 15 13 9 6 5 4 4 5 5 6 8 9 11 13 14 15 17 18 19 20 21 23 25 27 30 32 32 31 30 28 29 31 32 32 32 32 32 32 32 31 30 30 29 28 28 27 27 27 26 24 22 21 18 16 14 13 10 9 9 8 7 8
21 20 18 18 18 18 18 18 18 19 18 17 16 15 12 11 10 10 10 10 10 10 9 7 6 6 6 6 7 7 8 8 9 10 11 12 13 14 15 16 18 19 20 21 21 22 25 28 31 32 32 32 32 34 35 34 32 30 29 27 27 27 27 26 25 25 24 23 23 23 24 23 22 21 19 17 15 13 11 10 9 9 9 9 9
20 19 18 18 17 17 17 18 17 17 17 17 17 16 15 13 12 12 11 11 12 11 10 10 10 10 9 8 8 9 10 10 10 11 12 13 14 15 15 17 19 21 22 22 22 24 28 31 33 34 35 36 36 36 35 32 30 29 27 26 25 25 24 24 23 22 21 21 20 20 20 20 19 18 18 16 13 11 9 8 7 8 8 9 9
19 18 18 18 17 17 17 17 17 16 17 16 16 16 16 15 14 13 13 13 12 12 12 12 12 12 11 10 10 10 12 13 13 13 14 15 16 17 18 20 22 24 25 26 28 30 32 34 35 35 36 36 35 33 32 30 29 28 26 25 24 23 22 22 21 20 20 20 19 19 18 17 17 17 15 13 11 8 7 7 8 9 9 9 10
19 18 18 17 17 18 17 17 16 16 16 16 15 15 15 15 15 14 14 13 13 13 13 14 13 13 12 12 12 12 13 15 15 15 16 18 20 22 24 26 28 30 31 33 34 35 35 35 34 34 34 33 31 31 29 28 27 26 25 24 23 21 20 19 19 18 18 17 16 16 16 15 15 15 13 11 8 7 7 8 9 10 10 11 11
19 18 17 17 17 17 17 17 17 17 17 16 16 15 15 15 15 15 15 14 13 13 14 14 15 15 14 14 14 14 15 18 19 20 22 24 27 30 32 33 34 36 36 36 36 35 34 33 32 32 31 30 29 28 27 25 24 23 21 20 19 18 18 17 16 16 15 14 14 13 13 13 13 13 11 8 7 6 8 9 10 11 12 12 11
Wind_Direction
29 30 31 30 30 31 30 29 27 22 14 359 339 322 309 301 297 294 288 281 276 271 265 262 258 254 251 248 245 242 240 238 236 234 233 232 232 232 232 231 230 230 230 231 231 230 229 229 229 229 228 227 226 225 224 222 220 217 216 215 215 217 214 210 213 188 177 188 193 202 209 208 209 213 212 216 223 224 227 237 247 251 248 243 234
27 26 24 24 27 29 29 28 28 26 23 17 6 354 339 324 313 306 297 290 285 279 272 266 263 259 255 251 248 245 243 240 238 235 234 233 232 233 232 231 231 230 229 229 230 229 228 228 229 229 228 227 226 226 224 222 219 216 215 213 213 216 215 208 205 189 173 186 192 197 204 206 206 210 212 215 222 226 229 238 245 246 243 239 232
26 25 23 21 21 22 23 24 24 24 24 20 16 11 1 347 332 318 306 297 290 285 279 272 266 262 258 254 251 248 245 243 241 239 237 235 234 233 233 232 232 231 229 229 229 228 227 227 228 228 226 226 226 226 225 223 220 217 215 215 214 216 216 211 206 193 171 181 192 194 200 204 204 208 213 215 219 226 232 238 240 240 238 235 232
20 22 23 22 21 19 18 18 18 18 19 18 18 16 10 359 343 327 314 305 296 289 285 279 270 264 260 256 253 251 249 246 244 243 241 239 237 236 235 235 234 232 231 231 230 228 226 226 226 226 224 224 224 225 224 222 221 219 217 216 215 215 217 213 209 201 179 177 191 196 198 202 202 206 212 215 219 227 231 233 233 233 233 231 232
13 14 17 18 19 18 15 14 13 12 12 12 13 14 12 8 357 341 325 310 301 292 285 282 274 266 262 260 258 255 252 250 248 247 245 243 241 239 238 238 237 236 235 233 232 231 229 227 227 226 222 222 222 223 222 221 221 219 218 217 215 215 216 214 211 208 192 177 183 190 194 196 196 203 209 211 214 221 225 226 225 226 225 226 231
11 10 10 10 11 11 12 11 9 8 7 7 7 7 8 9 6 359 347 330 315 300 287 280 276 272 268 264 262 259 256 254 252 250 247 245 244 242 241 240 240 240 238 237 236 234 233 232 231 227 223 222 222 222 220 220 219 219 218 217 216 214 214 213 211 209 201 182 178 181 184 188 189 197 208 208 204 204 209 215 220 223 223 224 229
4 2 1 360 2 4 6 7 7 5 4 4 3 3 3 3 3 2 358 351 339 323 306 291 285 283 276 268 264 262 259 256 252 251 249 247 247 245 243 242 243 243 242 240 239 238 237 236 234 230 227 226 225 223 220 218 218 218 218 216 214 212 211 211 210 207 201 185 178 180 183 188 190 193 203 206 205 203 199 197 206 215 219 221 220
355 355 355 356 357 356 357 1 3 3 2 1 359 358 358 358 358 359 358 355 349 341 330 315 302 294 286 277 270 266 262 256 251 250 249 248 247 246 245 244 245 246 245 243 241 241 239 237 236 234 232 230 229 226 223 220 217 216 216 215 213 211 210 208 207 204 198 189 182 180 179 184 189 188 189 195 202 209 205 199 197 196 201 212 216
348 348 350 350 349 349 349 353 357 358 358 357 355 354 354 354 354 355 354 353 350 346 340 331 321 307 295 287 280 274 267 260 255 252 250 247 246 245 245 245 246 247 247 245 243 243 241 238 237 236 235 233 232 231 228 224 220 217 216 214 211 210 208 206 204 200 194 191 186 178 177 184 188 186 187 194 200 204 201 202 204 196 195 211 222
340 339 339 338 338 340 341 345 350 353 353 351 350 350 350 350 350 350 350 348 347 345 341 338 332 320 305 293 285 278 273 268 262 258 254 250 248 246 244 244 244 246 247 246 244 243 242 240 238 237 236 235 234 233 230 227 225 222 220 217 213 210 206 203 203 201 197 194 190 181 180 189 192 191 194 198 198 194 189 194 202 203 204 219 231
336 335 334 331 329 330 330 334 340 344 346 346 345 344 344 345 345 345 344 343 341 340 339 337 334 329 320 307 295 283 277 275 270 263 258 254 251 248 245 243 243 244 245 244 244 243 242 241 240 238 236 235 234 233 231 229 227 225 223 221 219 216 211 206 204 202 201 201 199 193 189 190 192 192 193 189 187 188 186 186 191 193 197 213 224
330 331 331 330 329 330 329 329 331 334 337 338 338 337 337 339 340 340 339 338 337 335 334 332 330 328 323 315 307 296 288 285 279 270 264 258 254 250 247 245 244 243 244 243 243 242 241 240 240 238 236 234 232 232 231 230 229 227 225 223 222 222 218 214 210 206 205 204 203 203 201 197 192 191 191 187 185 183 181 181 186 189 193 206 211
321 323 324 323 323 325 327 328 329 330 331 333 333 330 329 330 331 332 332 333 333 332 330 328 325 323 319 314 309 303 298 294 287 278 271 264 259 253 248 247 246 244 243 242 242 242 241 240 239 237 237 234 231 230 229 229 228 228 227 226 225 224 221 220 217 213 210 208 206 207 207 204 200 198 198 194 186 177 174 178 184 186 190 201 209
313 315 316 315 314 317 320 322 324 325 328 330 328 322 320 321 322 323 325 326 327 327 326 326 323 320 316 310 306 303 299 297 292 283 276 270 264 257 251 249 247 246 245 243 242 242 241 241 239 238 237 233 228 226 227 227 226 226 225 226 226 225 222 221 219 217 215 213 211 212 212 211 208 205 203 198 190 184 180 178 177 180 187 196 208
306 307 308 308 308 312 315 316 318 322 325 328 324 314 311 314 316 318 317 315 317 318 319 321 320 318 315 310 305 301 299 298 295 288 280 272 264 257 252 250 248 247 247 245 244 242 241 240 239 238 236 233 228 224 224 224 223 222 223 224 225 225 223 222 220 219 218 218 217 218 217 216 213 209 204 198 194 190 185 178 175 176 180 188 206
296 296 297 300 302 305 310 312 314 317 321 325 321 311 307 309 312 314 310 306 306 308 311 313 314 312 312 310 305 301 301 300 296 291 285 275 264 257 252 250 248 248 247 246 245 243 240 238 238 238 236 233 229 225 223 223 221 219 220 221 221 222 223 223 222 221 220 220 219 219 219 217 214 209 204 198 193 187 178 173 177 177 175 186 213
290 291 291 294 296 297 302 306 309 312 316 318 315 307 303 306 308 309 306 301 298 299 302 306 307 307 307 306 303 299 300 300 297 293 288 278 267 259 253 250 247 246 247 246 244 243 241 239 238 237 235 233 230 226 223 221 218 217 217 217 216 218 220 221 220 220 221 219 217 216 215 215 212 209 205 200 195 187 177 170 175 178 176 191 218
291 293 293 293 293 294 298 301 304 307 310 311 308 300 298 301 304 304 302 297 295 293 293 296 299 301 301 301 299 295 295 298 297 292 287 281 269 259 255 252 250 246 246 246 245 243 242 240 238 235 233 232 230 226 222 219 216 215 215 213 212 214 215 212 209 212 215 214 213 212 211 210 207 204 200 196 193 193 189 181 178 179 184 200 214
291 292 291 290 290 291 293 295 298 301 303 304 300 294 295 298 300 300 299 295 292 291 288 286 290 294 295 295 295 293 292 295 295 291 285 280 269 257 251 252 253 250 246 245 244 242 241 240 238 234 233 231 229 225 221 217 215 215 212 208 209 212 209 202 200 201 200 200 202 202 200 198 196 193 191 187 189 196 197 192 187 185 189 202 206
292 291 289 288 287 289 290 291 292 295 297 297 294 291 294 296 297 298 298 294 290 288 285 282 283 287 289 290 291 291 290 291 293 291 284 279 271 259 250 248 251 253 250 245 241 239 238 237 236 234 232 230 228 223 217 214 215 215 210 207 210 211 204 198 200 200 194 193 194 192 190 188 187 187 185 183 186 190 191 193 195 193 195 200 199
294 291 289 288 288 289 291 291 292 292 291 290 289 290 292 294 295 296 297 294 290 288 286 283 280 280 283 285 286 286 286 287 290 290 284 278 271 259 250 248 249 252 254 250 241 236 234 233 233 232 228 226 226 220 213 211 213 214 212 212 214 213 206 201 201 198 194 191 188 185 183 182 182 184 184 183 182 182 183 189 196 200 207 211 206
297 294 292 290 289 289 290 290 290 289 289 288 288 289 291 292 292 293 292 289 287 287 286 283 278 275 278 280 280 281 283 283 285 286 283 278 270 258 249 249 248 248 253 253 244 236 233 231 232 232 228 223 220 216 212 210 210 213 215 216 216 213 207 202 197 193 191 187 182 180 181 180 180 183 184 182 181 183 186 193 201 209 218 220 216
299 296 293 291 290 289 288 288 287 286 287 288 288 288 289 290 289 288 286 283 283 283 282 279 276 273 273 275 276 278 281 281 281 281 281 278 272 261 252 250 250 247 248 250 245 238 236 234 232 232 228 221 216 213 212 210 210 212 214 213 210 207 204 199 194 190 188 185 180 180 180 180 180 181 182 183 185 189 194 200 208 214 216 217 218
299 294 292 290 289 288 288 287 287 286 286 288 287 285 285 285 284 282 280 277 276 275 275 274 273 270 270 269 271 274 277 278 278 278 278 277 273 265 255 251 251 248 247 248 246 241 239 235 232 231 226 218 214 213 212 211 211 213 212 207 201 199 198 196 192 188 186 184 182 181 180 181 182 182 184 185 187 191 197 203 207 208 207 208 212
297 293 291 289 288 289 289 288 287 286 286 285 281 279 279 280 278 276 274 271 268 267 268 269 267 266 266 266 267 269 270 271 274 275 275 274 271 265 256 250 250 248 246 246 244 242 240 236 232 229 222 215 213 214 214 214 213 213 211 203 198 196 195 193 190 186 185 185 184 181 181 183 185 185 185 185 186 189 193 195 194 194 197 203 210
298 293 291 290 289 289 288 288 287 287 285 281 275 272 272 272 272 271 268 265 263 263 265 266 265 265 263 261 264 267 263 262 266 270 271 269 267 263 256 250 248 247 246 248 246 242 238 233 228 224 217 212 212 213 216 217 216 217 213 203 197 198 195 191 188 185 184 184 183 182 183 185 185 185 185 184 186 189 189 185 184 188 196 204 214
299 294 291 291 291 289 288 287 287 287 284 280 276 273 270 268 268 266 264 262 262 263 263 263 264 263 263 261 262 263 262 258 259 262 262 259 258 258 255 251 249 246 247 249 248 242 233 228 224 220 215 213 213 214 217 217 216 219 214 202 197 197 194 189 189 187 186 186 186 185 184 183 181 180 182 183 183 184 186 185 183 186 195 201 210
295 291 290 290 288 286 286 285 286 285 282 280 276 273 270 267 264 262 260 260 261 263 265 266 264 263 264 265 265 265 264 258 253 254 254 250 248 248 248 248 245 241 240 243 244 238 227 220 216 213 211 210 210 212 214 214 214 216 209 199 195 194 189 186 188 190 188 188 186 182 178 177 177 177 178 179 177 175 180 184 181 180 184 188 196
294 290 289 289 286 285 284 283 282 282 281 279 275 271 268 265 262 263 263 259 256 259 261 262 262 261 262 264 264 264 263 257 255 257 258 253 247 243 243 244 242 238 237 238 237 229 216 207 202 201 202 203 203 204 206 208 210 208 200 193 189 184 180 181 185 187 185 182 179 177 174 172 174 174 173 173 172 172 176 179 177 173 176 181 195
295 292 291 290 289 288 288 285 283 282 280 280 279 276 273 266 261 262 264 262 258 257 257 258 259 260 261 260 259 258 260 261 263 263 263 259 251 245 244 245 243 241 240 236 229 217 204 197 195 194 196 198 199 198 199 200 201 197 190 186 181 176 177 181 184 184 182 180 178 178 174 171 170 171 170 168 165 166 170 173 172 171 174 181 195
294 293 293 291 290 290 289 286 284 282 279 278 278 279 279 276 268 263 264 265 265 261 259 259 259 258 259 260 261 261 262 264 266 265 262 260 254 247 244 241 237 236 235 229 221 208 196 194 195 193 194 198 198 194 192 193 193 188 182 181 178 174 176 181 182 180 178 176 176 175 174 171 169 169 169 167 162 161 164 168 169 172 179 186 194
291 291 291 290 289 289 287 284 284 283 280 279 277 276 279 282 279 274 270 269 269 268 267 267 266 264 261 260 260 261 261 262 263 263 262 260 255 250 246 242 237 234 229 225 218 204 193 195 196 191 192 197 197 192 187 185 184 181 176 175 175 174 175 178 179 178 176 174 173 173 172 171 170 169 169 167 163 161 162 166 168 169 176 185 195
290 290 290 290 289 288 286 285 284 283 281 281 279 277 278 280 283 286 284 279 277 279 280 280 279 278 275 271 268 267 265 263 262 261 260 257 254 250 247 244 243 239 231 224 219 207 197 196 194 189 190 193 194 191 185 178 176 177 176 175 175 176 176 176 175 175 176 176 174 171 170 171 169 167 166 165 164 163 161 163 166 167 172 183 193
291 289 289 289 288 287 286 285 283 282 281 280 279 278 279 279 281 285 287 286 284 284 282 279 277 277 277 277 277 276 274 271 267 265 262 258 252 247 243 241 242 240 233 226 220 207 198 197 195 191 191 193 193 190 182 174 172 174 175 176 175 173 172 172 171 169 172 174 172 170 170 170 169 166 165 163 164 164 162 162 165 167 173 183 190
294 292 290 289 288 287 285 284 282 281 280 280 279 279 279 280 280 280 281 283 285 285 284 281 279 276 274 273 273 272 271 271 268 264 260 257 252 244 236 231 231 231 229 227 223 205 192 191 191 189 191 192 191 187 180 173 171 172 173 174 172 169 168 169 168 168 170 171 170 170 170 170 170 169 167 165 164 166 166 167 170 173 177 182 186
295 294 292 291 289 287 286 285 283 282 281 280 280 279 278 278 278 277 277 278 279 281 282 281 280 279 278 275 271 268 267 268 267 261 255 253 252 246 231 217 216 219 222 227 226 210 194 188 187 188 190 190 187 184 180 175 172 172 174 174 172 169 169 167 165 167 170 170 169 169 168 169 170 170 168 167 168 169 170 171 172 174 178 181 187
293 292 291 290 289 287 286 285 283 281 281 281 279 278 278 277 276 277 277 277 277 279 281 281 280 281 281 279 276 273 267 262 260 259 254 251 253 248 228 207 208 215 218 224 227 217 199 187 185 187 188 186 183 181 178 174 172 170 171 174 175 173 172 169 167 169 170 167 166 167 168 169 171 171 169 168 169 170 172 173 171 172 179 184 190
288 287 286 287 288 287 285 285 283 281 281 280 279 278 278 277 277 277 277 278 278 279 280 281 282 281 280 279 279 279 274 265 260 259 258 258 258 246 221 202 204 211 214 221 224 215 199 188 186 187 185 181 179 176 173 170 168 165 166 170 172 171 169 167 165 167 168 165 164 167 169 170 171 172 173 172 171 171 173 174 170 171 178 186 194
288 287 286 287 288 287 284 283 283 282 280 280 279 278 277 277 277 277 277 278 280 283 284 285 286 285 284 285 283 279 274 270 266 264 262 266 263 241 211 198 200 204 211 220 219 206 196 190 186 184 181 176 172 169 168 167 164 162 163 165 164 164 165 164 162 164 166 166 166 168 170 170 172 175 177 176 174 173 173 174 175 177 180 188 200
291 290 289 288 287 286 283 281 280 279 278 277 276 277 277 276 277 278 279 280 281 283 284 283 283 282 283 285 286 285 280 274 271 269 266 269 265 237 204 194 195 201 210 215 204 190 185 180 176 174 171 167 164 165 166 165 161 160 163 166 165 165 167 167 167 168 169 169 169 170 171 173 175 177 178 178 177 177 178 179 183 186 188 197 206
294 290 289 288 286 284 281 278 275 273 271 271 272 272 272 272 272 274 276 277 277 279 280 278 276 276 277 278 280 284 286 283 273 265 262 266 263 244 216 200 195 195 196 191 181 176 171 166 163 159 157 158 160 163 164 164 162 162 164 166 166 167 168 170 170 171 171 171 171 172 173 176 177 177 177 177 178 179 182 185 187 189 195 205 214
295 289 287 286 284 280 276 274 272 269 266 265 266 266 266 267 268 270 271 273 274 275 277 277 277 278 279 278 277 279 284 286 277 264 258 260 260 245 219 193 180 175 169 164 163 161 155 151 152 155 158 162 164 165 165 166 166 164 162 164 167 168 168 169 170 171 171 172 174 175 175 176 178 178 177 177 177 180 184 188 189 191 199 210 219
295 291 289 288 286 281 276 273 272 269 264 262 262 262 261 261 262 264 267 269 271 272 273 274 275 276 279 281 281 281 284 288 285 268 247 239 236 207 166 151 151 153 154 157 161 162 160 159 160 163 168 172 176 180 181 179 174 168 164 164 168 169 167 167 169 171 172 174 175 175 175 175 176 176 176 177 178 181 185 190 195 201 210 218 226
303 301 299 299 298 297 293 288 282 275 270 266 263 261 259 258 259 261 263 264 266 269 271 271 273 275 279 284 288 287 285 289 292 264 198 174 156 141 134 135 143 151 157 161 163 163 163 163 163 166 170 174 178 184 187 185 182 179 174 169 167 168 168 169 171 173 174 174 173 173 174 174 174 174 176 178 181 183 187 195 203 208 214 222 231
311 309 306 306 308 310 310 309 305 299 292 284 274 265 259 256 255 256 259 261 263 267 269 272 276 281 287 294 301 306 308 325 50 116 135 137 134 132 132 134 141 148 153 157 160 162 165 167 167 166 167 168 170 173 176 176 178 179 176 171 168 168 169 170 172 173 174 173 172 172 174 175 176 177 179 180 183 188 194 201 208 212 218 227 233
316 314 313 314 318 320 321 322 321 318 315 311 305 295 281 270 263 260 261 263 266 269 273 279 286 297 315 342 8 34 57 79 93 101 110 117 122 126 133 140 143 146 151 157 162 165 168 170 169 163 159 158 160 162 163 164 165 167 168 167 166 167 168 169 171 171 172 173 174 174 176 177 179 181 182 184 187 192 198 204 211 217 225 232 237
322 321 321 322 325 327 327 328 329 330 330 330 333 334 331 324 316 307 302 304 308 309 313 327 346 7 26 35 43 54 66 78 88 94 99 107 113 119 128 136 139 141 145 151 156 158 159 160 158 154 150 150 151 152 154 156 157 158 160 161 161 162 163 164 166 168 169 172 174 175 177 179 181 181 184 187 190 195 204 213 224 235 243 246 249
328 327 328 330 332 332 334 336 339 341 342 343 345 346 349 352 356 358 358 358 359 1 4 9 13 20 29 40 56 73 82 85 87 91 97 102 107 114 122 128 131 134 135 136 139 145 149 149 148 146 144 144 145 146 148 150 151 151 153 154 156 158 159 160 162 164 165 168 172 175 178 181 182 182 186 191 193 199 211 223 234 246 251 251 252
335 335 335 336 337 338 339 342 345 347 350 352 353 353 354 356 360 5 8 9 11 13 13 15 19 22 25 32 46 65 80 86 87 90 94 99 103 110 119 125 128 130 131 131 131 135 139 140 139 138 138 139 139 140 142 144 145 146 149 151 153 155 158 159 161 164 166 169 173 175 178 181 183 184 188 193 197 206 225 241 251 254 250 246 248
342 343 343 343 343 342 342 344 347 350 354 356 357 359 360 360 360 3 7 10 15 18 19 21 25 26 27 33 41 54 71 82 85 89 95 101 107 112 116 120 121 121 122 124 126 128 130 131 131 132 132 133 134 136 138 141 144 147 149 151 153 155 158 160 163 167 169 171 175 177 178 180 183 185 189 197 207 223 242 251 255 254 246 241 245
350 349 349 350 349 349 350 351 352 351 354 357 360 1 3 4 5 7 9 11 16 20 22 27 33 35 40 47 53 60 71 81 89 93 98 103 108 112 113 115 117 117 119 121 123 125 126 127 127 128 128 129 131 133 136 139 143 145 147 149 151 154 158 162 165 168 171 173 176 178 178 181 183 186 194 205 219 237 250 251 249 249 247 246 253